Tracking 19827 objects as of 22-Aug-2019
HD Live streaming from Space Station
objects crossing your sky now

COSMOS 1249 COOLANT

Track COSMOS 1249 COOLANT now!
10-day predictions


NORAD ID: 26509
Int'l Code: 1981-021L
Perigee: 890.3 km
Apogee: 973.8 km
Inclination: 65.0 °
Period: 103.5 minutes
Semi major axis: 7303 km
RCS: 0.006 m2 (small)
Launch date: March 5, 1981
Source: Commonwealth of Independent States (former USSR) (CIS)
Launch site: TYURATAM MISSILE AND SPACE COMPLEX (TTMTR)

Note: This is SATELLITE DEBRIS
aabbcc
Your satellite tracking list
Your tracking list is empty




NASA's NSSDC Master Catalog

Two Line Element Set (TLE):
1 26509U 81021L   19231.03830586 -.00000057 +00000-0 +26630-4 0  9997
2 26509 064.9661 013.1423 0057154 320.8502 038.8432 13.91065664312872
Source of the keplerian elements: AFSPC